Regional Weather Roundup
Issued by NWS

Home | Current Version | Previous Version | Text Only | Print | Product List | Glossary Off
Versions: 1 2 3 4 5 6 7 8 9 10 11 12 13 14 15 16 17 18 19 20 21 22 23 24 25 26 27 28 29 30 31 32 33 34 35 36 37 38 39 40 41 42 43 44 45 46 47 48 49 50

200
ASUS43 KIND 230609
RWRIN

WEATHER ROUNDUP FOR INDIANA
NATIONAL WEATHER SERVICE INDIANAPOLIS IN
100 AM EST MON JAN 23 2017

NOTE: "FAIR" INDICATES FEW OR NO CLOUDS BELOW 12,000 FEET WITH NO
SIGNIFICANT WEATHER AND/OR OBSTRUCTIONS TO VISIBILITY.

* - STATION DOES NOT REPORT WEATHER SUCH AS PRECIPITATION OR FOG.

+ - STATION NOT QUALITY CONTROLLED BY THE NATIONAL WEATHER SERVICE.
    USE DATA WITH CAUTION...ESPECIALLY DEWPOINT AND RELATIVE
    HUMIDITY OBSERVATIONS.

INZ001>003-010>013-019-020-230700-
NORTHWEST INDIANA

CITY           SKY/WX    TMP DP  RH WIND       PRES   REMARKS
GARY /AIRPORT/ CLOUDY    40  40 100 N14       29.68S FOG
KNOX *+        CLOUDY    41  36  81 N9        29.63F VSB 1
LA PORTE +     FOG       39  39 100 N9        29.65S VSB 1/2
6HR MIN TEMP:  39; 6HR MAX TEMP:  40;

MICHIGAN CITY+ FOG       37  37 100 N8        29.67S VSB 1/2
MONTICELLO +   CLOUDY    42  41  95 N10       29.60S FOG
6HR MIN TEMP:  42; 6HR MAX TEMP:  45;

RENSSELAER +   CLOUDY    39  39 100 N9G16     29.63F FOG
VALPARAISO     FOG       40  40 100 N9        29.65S VSB 1/2
6HR MIN TEMP:  40; 6HR MAX TEMP:  42;


$$

LMZ046-743>745-230700-
SOUTHERN LAKE MICHIGAN

STATION/POSITION TIME  TEMP    WIND        PRES    WAVE
                       AIR SEA DIR/SP/G            HT
                 (UTC) (F)     (DEG/KT/KT) (MB)    (FT)
BURNS HARBOR     0540   36     350/  6/  8 1005.8R
MICHIGAN CITY    0540   37     350/ 10/ 10   N/A

$$

INZ004-005-014>016-021>024-230700-
NORTH CENTRAL INDIANA

CITY           SKY/WX    TMP DP  RH WIND       PRES   REMARKS
GOSHEN         FOG       43  41  93 N7        29.61F VSB 1/2
6HR MIN TEMP:  43; 6HR MAX TEMP:  44;

LOGANSPORT +   CLOUDY    43  43 100 N14       29.59F FOG
PERU/GRISSOM   FOG       45  45 100 N13       29.56S VSB 1/2
6HR MIN TEMP:  45; 6HR MAX TEMP:  49;

ROCHESTER +    FOG       45 N/A N/A N8        29.60F VSB 3/4
SOUTH BEND     FOG       40  40 100 N8        29.64S VSB 1
6HR MIN TEMP:  40; 6HR MAX TEMP:  41;

WARSAW +       FOG       43  43 100 N5        29.60F VSB 1/2

$$

INZ006>009-017-018-025>027-230700-
NORTHEAST INDIANA

CITY           SKY/WX    TMP DP  RH WIND       PRES   REMARKS
ANGOLA *+      CLOUDY    45  30  57 N3        29.58F VSB 3/4
AUBURN +       CLOUDY    46  45  93 N9        29.58F FOG
FORT WAYNE     CLOUDY    48  46  93 N9        29.56F FOG
6HR MIN TEMP:  48; 6HR MAX TEMP:  51;

HUNTINGTON +   CLOUDY    47  46  96 N7        29.56F FOG
6HR MIN TEMP:  47; 6HR MAX TEMP:  50;

KENDALLVILLE + FOG       46  46 100 N5        29.59F VSB 3/4

$$

INZ028-029-035-036-043>045-051>053-230700-
WEST CENTRAL INDIANA

CITY           SKY/WX    TMP DP  RH WIND       PRES   REMARKS
CRAWFORDSVL +  FOG       42  42 100 N10       29.56F VSB 1/2
6HR MIN TEMP:  42; 6HR MAX TEMP:  48;

GREENCASTLE +  CLOUDY    45  45 100 N14       29.55R FOG
LAFAYETTE      CLOUDY    42  42 100 N8        29.60S FOG
6HR MIN TEMP:  42; 6HR MAX TEMP:  46;

TERRE HAUTE    CLOUDY    46  42  86 N13G20    29.55F
6HR MIN TEMP:  46; 6HR MAX TEMP:  54;


$$

INZ030>032-037>040-046>048-054>057-064-065-230700-
CENTRAL INDIANA

CITY           SKY/WX    TMP DP  RH WIND       PRES   REMARKS
CP ATTERBURY + MOCLDY    50  46  87 N14       29.49S
FISHERS *+     CLOUDY    48  48 100 N3        29.53S
FRANKFORT +    MIX PCPN  46  46  97 N14       29.58F VSB 1/2
6HR MIN TEMP:  46; 6HR MAX TEMP:  53;

GREENWOOD *+   PTCLDY    51  49  93 N13       29.51S
6HR MIN TEMP:  51; 6HR MAX TEMP:  58;

INDIANAPOLIS   CLOUDY    50  47  89 N15       29.52S
6HR MIN TEMP:  50; 6HR MAX TEMP:  56;

-EAGLE CREEK   CLOUDY    50  47  89 N15       29.53S
6HR MIN TEMP:  50; 6HR MAX TEMP:  56;

KOKOMO +       FOG       46  46 100 N10       29.57S VSB 1/2
6HR MIN TEMP:  46; 6HR MAX TEMP:  50;

MARION +       CLOUDY    48  46  93 N12       29.55F FOG
MT COMFORT *+  CLOUDY    48  48 100 N16       29.52S
SHELBYVILLE    CLOUDY    52  47  83 N12       29.48F
6HR MIN TEMP:  51; 6HR MAX TEMP:  57;

ZIONSVILLE +   CLOUDY    47  46  97 N15       29.55S FOG
6HR MIN TEMP:  47; 6HR MAX TEMP:  52;


$$

INZ033-034-041-042-049-050-058-059-230700-
EAST CENTRAL INDIANA

CITY           SKY/WX    TMP DP  RH WIND       PRES   REMARKS
MUNCIE         CLOUDY    50  48  93 NE12      29.53F FOG
6HR MIN TEMP:  50; 6HR MAX TEMP:  55;


$$

INZ060-061-067>069-081>083-085>088-230700-
SOUTHWEST INDIANA

CITY           SKY/WX    TMP DP  RH WIND       PRES   REMARKS
EVANSVILLE     CLOUDY    51  46  83 N17G25    29.49R
6HR MIN TEMP:  51; 6HR MAX TEMP:  59;

HUNTINGBURG *+ MOCLDY    52  49  89 N13       29.45S
6HR MIN TEMP:  52; 6HR MAX TEMP:  59;

WASHINGTON +   CLOUDY    49  47  91 N16G24    29.49S
6HR MIN TEMP:  49; 6HR MAX TEMP:  56;


$$

INZ062-063-066-070>080-084-089>092-230700-
SOUTH CENTRAL AND SOUTHEAST INDIANA

CITY           SKY/WX    TMP DP  RH WIND       PRES   REMARKS
BLOOMINGTON    PTCLDY    50  46  86 N14       29.49F
6HR MIN TEMP:  49; 6HR MAX TEMP:  58; 6HR PCP: TRACE;

MADISON *+     PTCLDY    55  46  71 N10       29.43S
NORTH VERNON + CLOUDY    54  54 100 N9        29.45S
SEYMOUR +      CLOUDY    54  50  87 N16       29.44

$$





USA.gov is the U.S. government's official web portal to all federal, state and local government web resources and services.